Location: Mallard Lake North
(41.9667°N, 88.3709°W)
Time: 11:03:51
(UTC+00:00)

S-56A Canister/Altair - Pass Details

Date: 20 December 2025
Orbit: 632 x 2486 km, 38.9° (Epoch: 20 January)

Event Time Altitude Azimuth Distance (km) Brightness Sun altitude
Rises 01:44:58 0° 258° (WSW) 3,019 11.5 -36.3°
Reaches altitude 10° 01:47:22 10° 254° (WSW) 2,034 10.4 -36.7°
Enters shadow 01:48:21 16° 251° (WSW) 1,641 9.8 -36.9°
